SCP
0 0 0 0 0 0 0 0 0 0 0 0 -0 0 0 0 0 0 0 0 0 0 0 0 0 0 0 0 0 0 0 0 0 0 0 0 0 0 0 0 0 0 0 0
0 0 0 0 0 0 0 0 0 0 0 0 0 0 0 -0 0 0 0 0 0 0 0 0 0 0 0 0 0 0 0 0 0 0 0 0 0 0 0 0 0 0 0 0
0 0 0 0 0 0 0 0 0 0 0 0 0 0 0 0 0 0 0 0 0 0 0 0 0 0 0 0 0 0 0 0 0 0 0 0 0 0 0 0 0 0 0 0
0 0 0 0 0 0 0 0 0 0 0 0 0 0 0 0 0 0 0 0 0 0 0 0 0 0 0 0 0 0 0 0 0 0 0 0 0 0 0 0 0 0 0 0
0 0 0 0 0 0 0 0 0 0 0 0 0 0 0 0 0 0 0 0 0 0 0 0 0 0 0 0 0 0 0 0 0 0 0 0 0 0 0 0 0 0 0 0
0 0 0 0 0 0 0 0 0 0 0 0 0 0 0 0 0 0 0 0 0 0 0 0 0 0 0 0 0 0 0 0 0 0 0 0 0 0 0 0 0 0 0 0
0 0 0 0 0 0 0 0 0 0 0 0 0 0 0 0 0 0 0 0 0 0 0 0 0 0 0 0 0 0 0 0 0 0 0 0 0 0 0 0 0 0 0 0
0 0 0 0 0 0 0 0 0 0 0 0 0 0 0 0 0 0 0 0 0 0 0 0 0 0 0 0 0 0 0 0 0 0 0 0 0 0 0 0 0 0 0 0
0 0 0 0 0 0 0 0 0 0 0 0 0 0 0 0 0 0 0 0 0 0 0 0 0 0 0 0 0 0 0 0 0 0 0 0 0 0 0 0 0 0 0 0
0 0 0 0 0 0 0 0 0 0 0 0 0 0 0 0 0 0 0 0 0 0 0 -0 -0 0 0 0 0 0 0 0 0 0 0 0 0 0 0 0 0 0 0 0
0 0 0 0 0 0 0 0 0 0 0 0 0 0 0 0 0 0 0 0 0 0 0 -0 -0 0 0 0 0 0 0 0 0 0 0 0 0 0 0 0 0 0 0 0
0 0 0 0 0 0 0 0 0 0 0 0 0 0 0 0 0 0 0 0 0 0 0 0 0 0 0 0 0 0 0 0 0 0 0 0 0 0 0 0 0 0 0 0
0 0 0 0 0 0 0 0 0 0 0 0 0 0 0 0 0 0 0 0 0 0 0 0 0 0 0 0 0 0 0 0 0 0 0 0 0 0 0 0 0 0 0 0
0 0 0 0 0 0 0 0 0 0 0 0 0 0 0 0 0 0 0 0 0 0 0 0 0 0 0 0 0 0 0 0 0 0 0 0 0 0 0 0 0 0 0 0
0 0 0 0 0 0 0 0 0 0 0 0 0 0 0 0 0 0 0 0 0 0 0 0 0 0 0 0 0 0 0 0 0 0 0 0 0 0 0 0 0 0 0 0
0 0 0 0 0 0 0 0 0 0 0 0 0 0 0 0 0 0 0 0 0 0 0 0 0 0 0 0 0 0 0 0 0 0 0 0 0 0 0 0 0 0 0 0
0 0 0 0 0 0 0 0 0 0 0 0 0 0 0 0 0 0 0 0 0 0 0 0 0 0 0 0 0 0 0 0 0 0 0 0 0 0 0 0 0 0 0 0
0 0 0 0 0 0 0 0 0 0 0 0 0 0 0 0 0 0 0 0 0 0 0 0 0 0 0 0 0 0 0 0 0 0 0 0 0 0 0 0 0 0 0 0
0 0 0 0 0 0 0 0 0 0 0 0 0 0 0 0 0 0 0 0 0 0 0 0 0 0 0 0 0 0 0 0 0 0 0 0 0 0 0 0 0 0 0 0
0 0 0 0 0 0 0 0 0 0 0 0 0 0 0 0 0 0 0 0 0 0 0 0 0 0 0 0 0 0 0 0 0 0 0 0 0 0 0 0 0 0 0 0
0 0 0 0 0 0 0 0 0 0 0 0 0 0 0 0 0 0 0 0 0 0 0 0 0 0 0 0 0 0 0 0 0 0 0 0 0 0 0 0 0 0 0 0
0 0 0 0 0 0 0 0 0 0 0 0 0 0 0 0 0 0 0 0 0 0 0 0 0 0 0 0 0 0 0 0 0 0 0 0 0 0 0 0 0 0 0 0
0 0 0 0 0 0 0 0 0 0 0 0 0 0 0 0 0 0 0 0 0 0 0 0 0 0 0 0 0 0 0 0 0 0 0 0 0 0 0 0 0 0 0 0
0 0 0 0 0 0 0 0 0 0 0 0 0 0 0 0 0 0 0 0 0 0 0 0 0 0 0 0 0 0 0 0 0 0 0 0 0 0 0 0 0 0 0 0
0 0 0 0 0 0 0 0 0 0 0 0 0 0 0 0 0 0 0 0 0 0 0 0 0 0 0 0 0 0 0 0 0 0 0 0 0 0 0 0 0 0 0 0
0 0 0 0 0 0 0 0 0 0 0 0 0 0 0 0 0 0 0 0 0 0 0 0 0 0 0 0 0 0 0 0 0 0 0 0 0 0 0 0 0 0 0 0
Wind_Speed_500mb
3 5 3 13 12 7 7 4 3 10 5 3 13 20 17 24 39 32 31 30 34 32 27 32 31 28 26 24 22 18 15 12 10 7 4 4 7 11 13 16 19 20 21 22
3 2 10 7 7 2 1 2 1 8 5 2 12 27 22 28 29 47 39 33 33 32 32 39 36 34 32 30 29 25 20 17 13 9 5 2 6 9 12 15 18 20 21 24
3 7 5 3 5 7 7 5 7 3 8 8 11 11 6 2 1 9 37 26 29 38 41 45 39 36 33 33 31 28 24 19 15 12 9 6 5 8 14 15 17 20 23 26
11 4 1 4 9 7 8 5 1 5 9 3 3 7 10 8 10 9 9 21 27 33 40 47 46 39 38 35 32 30 25 21 17 15 12 9 5 3 6 11 15 19 23 26
4 1 2 4 5 7 6 2 5 4 6 7 6 7 8 2 11 8 9 9 19 28 40 47 50 40 40 39 38 32 27 24 21 16 13 11 7 5 7 10 13 17 21 24
8 4 8 5 4 5 8 5 3 2 2 4 6 7 6 5 3 3 8 10 6 12 28 38 42 38 38 41 43 39 34 31 25 21 15 11 7 5 6 9 12 15 18 22
6 4 4 2 6 1 4 3 3 7 5 7 5 3 16 2 7 7 13 13 9 4 17 31 38 44 41 47 47 43 41 36 31 27 21 15 9 4 3 6 10 13 17 21
11 6 6 2 5 2 7 3 7 11 6 1 2 10 10 8 5 6 3 4 8 6 8 26 38 46 47 51 50 47 43 40 36 32 26 20 14 8 2 4 9 12 16 19
8 5 6 9 7 6 6 4 2 11 5 6 9 9 10 10 7 8 11 11 8 8 9 19 32 43 45 51 54 50 47 44 40 36 32 27 20 13 7 3 7 12 17 20
5 9 5 4 4 3 4 5 6 4 3 7 10 7 10 13 15 15 13 14 10 10 8 17 31 44 49 51 52 51 48 46 43 39 38 32 25 20 13 8 9 14 20 23
4 7 2 3 11 11 4 4 0 3 7 8 3 11 8 17 18 18 19 10 9 9 10 2 18 39 54 52 56 53 54 51 49 45 41 37 33 27 20 14 13 14 20 26
6 10 7 6 7 8 4 4 10 8 10 3 2 12 8 15 12 26 20 10 6 10 24 20 19 36 49 52 55 56 56 56 50 46 42 41 37 32 27 22 19 18 21 28
10 3 6 5 4 6 6 10 5 7 3 11 11 11 7 10 13 20 20 5 2 16 16 17 19 25 43 51 55 54 55 54 51 47 44 42 40 37 33 28 25 25 25 28
6 3 9 12 7 10 10 11 18 11 7 7 19 11 8 13 14 17 18 6 14 12 19 23 20 21 31 45 52 54 55 53 52 47 45 41 39 38 36 34 33 31 32 33
6 10 4 4 7 4 9 11 23 17 23 16 15 36 22 17 4 7 11 4 10 13 14 14 19 18 18 36 46 50 54 55 51 47 45 41 39 38 38 38 39 37 37 37
5 6 5 6 10 11 10 11 21 38 21 31 39 42 14 9 2 11 10 10 13 10 13 15 14 13 13 22 39 48 50 53 49 47 44 42 43 42 41 42 41 40 40 40
12 12 6 8 1 4 18 32 39 18 14 28 24 27 14 9 16 9 5 8 6 7 8 11 10 9 7 9 23 40 43 46 42 39 41 44 44 43 43 41 42 42 42 42
12 10 5 6 2 5 10 0 12 33 15 36 16 9 14 19 17 5 3 3 6 5 6 6 8 3 4 4 11 24 31 36 39 38 38 40 41 42 42 42 43 44 46 47
9 7 4 9 8 14 7 12 16 19 24 36 38 40 20 26 16 10 6 9 10 14 9 6 6 5 7 11 16 25 29 31 34 36 36 37 37 38 40 43 45 46 50 53
6 5 6 6 11 18 9 7 23 10 15 9 44 27 30 32 8 7 20 16 12 13 10 7 7 7 8 10 15 18 21 24 25 27 27 29 31 35 39 42 46 50 54 59
7 2 13 8 8 16 9 20 17 12 13 1 10 27 45 9 8 34 21 16 12 8 5 6 6 7 7 9 11 14 16 19 19 22 25 29 33 36 41 45 49 54 59 64
19 20 9 5 4 24 32 15 17 8 15 19 26 32 36 37 30 24 20 13 8 8 7 8 7 7 6 8 11 13 16 19 22 26 30 35 39 43 47 52 55 58 60 63
8 14 15 21 14 3 48 9 19 17 27 25 33 32 28 31 24 18 13 10 10 9 7 6 5 8 11 14 17 20 22 26 29 33 37 41 44 47 50 53 54 56 56 57
7 4 6 6 6 8 34 17 16 21 26 28 28 24 22 22 17 14 11 9 7 6 6 8 11 14 17 20 24 27 30 34 39 41 43 45 47 47 47 47 48 49 49 49
5 21 13 8 3 5 17 34 27 27 26 24 21 16 15 17 17 16 14 11 8 6 6 9 12 16 20 25 29 31 35 38 40 42 44 45 46 47 48 46 46 46 45 44
15 12 10 8 16 8 9 37 35 31 27 22 17 16 16 16 18 17 13 9 7 9 12 15 18 20 23 27 30 32 34 36 38 39 41 43 45 47 50 54 57 50 54 55
Wind_Direction_500mb
209 191 168 75 41 15 358 33 290 110 109 306 248 269 256 212 209 223 229 234 219 222 233 240 238 229 220 215 208 200 194 185 173 141 108 57 38 39 39 40 40 41 41 42
144 96 56 32 12 325 131 258 339 87 99 240 314 287 272 243 215 212 212 224 229 217 211 220 230 232 216 214 208 204 201 197 199 183 168 92 64 51 44 45 44 45 45 43
130 60 46 305 122 111 40 357 46 33 299 229 293 281 191 44 327 236 203 213 228 220 209 220 225 234 220 215 212 208 204 199 191 176 158 125 84 52 35 40 44 43 41 38
71 4 269 217 82 354 148 13 79 321 351 327 196 283 338 122 147 125 163 211 225 228 216 222 224 231 224 219 216 213 207 201 192 187 183 153 163 67 50 46 42 42 39 36
166 146 155 130 53 327 135 301 39 345 305 37 161 94 240 138 80 76 101 195 232 232 225 215 222 232 224 214 216 214 210 206 198 194 177 163 154 114 71 54 45 39 37 32
89 53 28 76 127 359 156 167 171 277 319 29 88 123 271 134 102 338 37 21 343 254 222 217 224 223 220 215 217 211 208 211 205 201 194 188 165 126 79 50 40 33 27 26
171 66 95 318 125 31 304 169 67 9 10 227 70 88 243 57 56 356 335 347 317 330 222 210 209 208 210 216 221 213 211 212 208 206 202 199 185 155 87 45 33 19 14 12
153 260 173 336 18 165 205 70 153 190 191 210 303 229 251 126 81 38 29 33 17 32 202 212 212 216 217 221 226 218 218 216 214 211 210 208 206 202 200 24 15 7 1 359
131 94 98 27 338 18 177 215 42 98 29 50 222 256 34 131 183 141 85 94 73 87 169 210 213 222 224 227 232 224 221 221 222 217 217 216 216 223 237 312 351 351 351 347
167 94 348 101 273 121 65 315 99 354 137 270 269 242 214 208 172 148 107 88 72 61 120 196 209 217 225 233 238 233 229 226 226 221 221 222 224 229 240 269 314 336 342 342
111 102 125 23 202 175 163 208 4 85 151 190 255 263 248 158 172 153 129 110 110 101 53 332 229 224 228 232 232 230 228 226 223 224 223 224 228 233 242 257 283 314 330 333
202 108 137 191 56 25 328 248 178 138 229 206 153 269 215 167 136 138 155 145 152 350 326 311 264 230 229 228 228 232 227 226 226 227 225 228 231 238 246 257 273 294 318 326
198 187 87 346 8 13 214 208 252 87 99 198 148 258 196 126 141 178 182 188 177 320 311 304 292 249 228 228 226 233 233 228 226 225 226 229 234 243 251 258 269 286 302 313
131 93 173 186 175 122 185 202 192 149 136 211 223 256 234 197 194 190 197 183 296 309 320 308 296 276 230 231 229 228 230 231 228 226 230 235 241 247 254 258 266 276 289 303
129 183 120 259 140 151 192 177 186 192 212 186 226 232 226 256 108 249 280 307 323 329 317 305 304 294 267 229 233 229 229 230 229 227 231 239 246 253 256 256 261 271 283 294
2 151 115 311 190 205 237 209 199 214 232 258 258 270 237 283 111 128 75 341 333 332 306 311 312 304 278 239 233 231 225 233 231 230 235 243 250 255 258 255 258 268 279 286
147 135 113 253 319 213 287 195 199 198 204 212 222 241 157 178 130 100 340 330 328 319 327 347 343 334 330 253 235 234 233 232 233 236 242 247 252 254 254 251 257 267 277 280
144 136 124 171 20 274 252 140 191 215 233 221 265 235 131 126 124 120 214 172 117 111 64 50 65 69 85 199 222 226 230 232 236 240 241 241 243 244 246 251 259 268 272 274
36 135 148 152 204 299 203 180 161 172 255 217 222 240 166 154 133 135 130 144 139 113 108 115 159 182 205 192 204 217 220 224 227 230 231 233 237 242 249 255 261 267 272 277
47 31 127 145 175 222 236 173 148 131 283 297 213 215 174 147 163 203 162 169 144 136 154 182 190 202 214 203 210 216 217 218 219 225 232 239 246 252 257 262 267 272 277 280
129 110 202 188 224 280 190 156 145 114 245 61 170 182 160 140 129 144 151 149 156 157 187 231 242 242 230 229 229 225 223 226 234 245 254 262 268 272 276 278 281 283 284 285
162 160 179 159 173 261 149 119 176 170 124 133 122 127 121 135 137 147 158 160 179 197 212 247 247 238 238 254 252 247 249 256 264 270 276 281 285 287 288 289 289 288 290 291
204 185 177 188 208 145 170 113 158 145 148 146 145 137 133 138 141 163 172 187 199 216 222 238 255 269 275 279 283 284 283 285 286 289 290 292 293 294 295 295 296 298 299 299
262 184 150 96 263 177 193 197 174 161 165 165 163 147 151 154 169 176 180 178 205 220 242 270 283 289 292 294 294 296 297 298 299 300 301 301 301 302 302 302 303 302 303 302
183 138 157 266 167 125 188 209 197 177 175 174 164 163 174 182 177 192 186 185 201 243 276 288 296 299 302 302 302 303 304 305 306 308 309 309 308 308 306 305 307 306 305 306
189 170 171 209 190 152 125 185 196 191 187 198 206 186 176 179 173 182 184 200 242 280 294 297 300 303 304 306 308 310 311 312 313 313 312 312 312 311 311 310 306 303 304 303
Wind_Speed_850mb
3 5 3 13 12 7 7 4 3 10 5 3 13 20 17 24 39 32 31 30 34 32 27 32 31 28 26 24 22 18 15 12 10 7 4 4 7 11 13 16 19 20 21 22
3 2 10 7 7 2 1 2 1 8 5 2 12 27 22 28 29 47 39 33 33 32 32 39 36 34 32 30 29 25 20 17 13 9 5 2 6 9 12 15 18 20 21 24
3 7 5 3 5 7 7 5 7 3 8 8 11 11 6 2 1 9 37 26 29 38 41 45 39 36 33 33 31 28 24 19 15 12 9 6 5 8 14 15 17 20 23 26
11 4 1 4 9 7 8 5 1 5 9 3 3 7 10 8 10 9 9 21 27 33 40 47 46 39 38 35 32 30 25 21 17 15 12 9 5 3 6 11 15 19 23 26
4 1 2 4 5 7 6 2 5 4 6 7 6 7 8 2 11 8 9 9 19 28 40 47 50 40 40 39 38 32 27 24 21 16 13 11 7 5 7 10 13 17 21 24
8 4 8 5 4 5 8 5 3 2 2 4 6 7 6 5 3 3 8 10 6 12 28 38 42 38 38 41 43 39 34 31 25 21 15 11 7 5 6 9 12 15 18 22
6 4 4 2 6 1 4 3 3 7 5 7 5 3 16 2 7 7 13 13 9 4 17 31 38 44 41 47 47 43 41 36 31 27 21 15 9 4 3 6 10 13 17 21
11 6 6 2 5 2 7 3 7 11 6 1 2 10 10 8 5 6 3 4 8 6 8 26 38 46 47 51 50 47 43 40 36 32 26 20 14 8 2 4 9 12 16 19
8 5 6 9 7 6 6 4 2 11 5 6 9 9 10 10 7 8 11 11 8 8 9 19 32 43 45 51 54 50 47 44 40 36 32 27 20 13 7 3 7 12 17 20
5 9 5 4 4 3 4 5 6 4 3 7 10 7 10 13 15 15 13 14 10 10 8 17 31 44 49 51 52 51 48 46 43 39 38 32 25 20 13 8 9 14 20 23
4 7 2 3 11 11 4 4 0 3 7 8 3 11 8 17 18 18 19 10 9 9 10 2 18 39 54 52 56 53 54 51 49 45 41 37 33 27 20 14 13 14 20 26
6 10 7 6 7 8 4 4 10 8 10 3 2 12 8 15 12 26 20 10 6 10 24 20 19 36 49 52 55 56 56 56 50 46 42 41 37 32 27 22 19 18 21 28
10 3 6 5 4 6 6 10 5 7 3 11 11 11 7 10 13 20 20 5 2 16 16 17 19 25 43 51 55 54 55 54 51 47 44 42 40 37 33 28 25 25 25 28
6 3 9 12 7 10 10 11 18 11 7 7 19 11 8 13 14 17 18 6 14 12 19 23 20 21 31 45 52 54 55 53 52 47 45 41 39 38 36 34 33 31 32 33
6 10 4 4 7 4 9 11 23 17 23 16 15 36 22 17 4 7 11 4 10 13 14 14 19 18 18 36 46 50 54 55 51 47 45 41 39 38 38 38 39 37 37 37
5 6 5 6 10 11 10 11 21 38 21 31 39 42 14 9 2 11 10 10 13 10 13 15 14 13 13 22 39 48 50 53 49 47 44 42 43 42 41 42 41 40 40 40
12 12 6 8 1 4 18 32 39 18 14 28 24 27 14 9 16 9 5 8 6 7 8 11 10 9 7 9 23 40 43 46 42 39 41 44 44 43 43 41 42 42 42 42
12 10 5 6 2 5 10 0 12 33 15 36 16 9 14 19 17 5 3 3 6 5 6 6 8 3 4 4 11 24 31 36 39 38 38 40 41 42 42 42 43 44 46 47
9 7 4 9 8 14 7 12 16 19 24 36 38 40 20 26 16 10 6 9 10 14 9 6 6 5 7 11 16 25 29 31 34 36 36 37 37 38 40 43 45 46 50 53
6 5 6 6 11 18 9 7 23 10 15 9 44 27 30 32 8 7 20 16 12 13 10 7 7 7 8 10 15 18 21 24 25 27 27 29 31 35 39 42 46 50 54 59
7 2 13 8 8 16 9 20 17 12 13 1 10 27 45 9 8 34 21 16 12 8 5 6 6 7 7 9 11 14 16 19 19 22 25 29 33 36 41 45 49 54 59 64
19 20 9 5 4 24 32 15 17 8 15 19 26 32 36 37 30 24 20 13 8 8 7 8 7 7 6 8 11 13 16 19 22 26 30 35 39 43 47 52 55 58 60 63
8 14 15 21 14 3 48 9 19 17 27 25 33 32 28 31 24 18 13 10 10 9 7 6 5 8 11 14 17 20 22 26 29 33 37 41 44 47 50 53 54 56 56 57
7 4 6 6 6 8 34 17 16 21 26 28 28 24 22 22 17 14 11 9 7 6 6 8 11 14 17 20 24 27 30 34 39 41 43 45 47 47 47 47 48 49 49 49
5 21 13 8 3 5 17 34 27 27 26 24 21 16 15 17 17 16 14 11 8 6 6 9 12 16 20 25 29 31 35 38 40 42 44 45 46 47 48 46 46 46 45 44
15 12 10 8 16 8 9 37 35 31 27 22 17 16 16 16 18 17 13 9 7 9 12 15 18 20 23 27 30 32 34 36 38 39 41 43 45 47 50 54 57 50 54 55
Wind_Direction_850mb
209 191 168 75 41 15 358 33 290 110 109 306 248 269 256 212 209 223 229 234 219 222 233 240 238 229 220 215 208 200 194 185 173 141 108 57 38 39 39 40 40 41 41 42
144 96 56 32 12 325 131 258 339 87 99 240 314 287 272 243 215 212 212 224 229 217 211 220 230 232 216 214 208 204 201 197 199 183 168 92 64 51 44 45 44 45 45 43
130 60 46 305 122 111 40 357 46 33 299 229 293 281 191 44 327 236 203 213 228 220 209 220 225 234 220 215 212 208 204 199 191 176 158 125 84 52 35 40 44 43 41 38
71 4 269 217 82 354 148 13 79 321 351 327 196 283 338 122 147 125 163 211 225 228 216 222 224 231 224 219 216 213 207 201 192 187 183 153 163 67 50 46 42 42 39 36
166 146 155 130 53 327 135 301 39 345 305 37 161 94 240 138 80 76 101 195 232 232 225 215 222 232 224 214 216 214 210 206 198 194 177 163 154 114 71 54 45 39 37 32
89 53 28 76 127 359 156 167 171 277 319 29 88 123 271 134 102 338 37 21 343 254 222 217 224 223 220 215 217 211 208 211 205 201 194 188 165 126 79 50 40 33 27 26
171 66 95 318 125 31 304 169 67 9 10 227 70 88 243 57 56 356 335 347 317 330 222 210 209 208 210 216 221 213 211 212 208 206 202 199 185 155 87 45 33 19 14 12
153 260 173 336 18 165 205 70 153 190 191 210 303 229 251 126 81 38 29 33 17 32 202 212 212 216 217 221 226 218 218 216 214 211 210 208 206 202 200 24 15 7 1 359
131 94 98 27 338 18 177 215 42 98 29 50 222 256 34 131 183 141 85 94 73 87 169 210 213 222 224 227 232 224 221 221 222 217 217 216 216 223 237 312 351 351 351 347
167 94 348 101 273 121 65 315 99 354 137 270 269 242 214 208 172 148 107 88 72 61 120 196 209 217 225 233 238 233 229 226 226 221 221 222 224 229 240 269 314 336 342 342
111 102 125 23 202 175 163 208 4 85 151 190 255 263 248 158 172 153 129 110 110 101 53 332 229 224 228 232 232 230 228 226 223 224 223 224 228 233 242 257 283 314 330 333
202 108 137 191 56 25 328 248 178 138 229 206 153 269 215 167 136 138 155 145 152 350 326 311 264 230 229 228 228 232 227 226 226 227 225 228 231 238 246 257 273 294 318 326
198 187 87 346 8 13 214 208 252 87 99 198 148 258 196 126 141 178 182 188 177 320 311 304 292 249 228 228 226 233 233 228 226 225 226 229 234 243 251 258 269 286 302 313
131 93 173 186 175 122 185 202 192 149 136 211 223 256 234 197 194 190 197 183 296 309 320 308 296 276 230 231 229 228 230 231 228 226 230 235 241 247 254 258 266 276 289 303
129 183 120 259 140 151 192 177 186 192 212 186 226 232 226 256 108 249 280 307 323 329 317 305 304 294 267 229 233 229 229 230 229 227 231 239 246 253 256 256 261 271 283 294
2 151 115 311 190 205 237 209 199 214 232 258 258 270 237 283 111 128 75 341 333 332 306 311 312 304 278 239 233 231 225 233 231 230 235 243 250 255 258 255 258 268 279 286
147 135 113 253 319 213 287 195 199 198 204 212 222 241 157 178 130 100 340 330 328 319 327 347 343 334 330 253 235 234 233 232 233 236 242 247 252 254 254 251 257 267 277 280
144 136 124 171 20 274 252 140 191 215 233 221 265 235 131 126 124 120 214 172 117 111 64 50 65 69 85 199 222 226 230 232 236 240 241 241 243 244 246 251 259 268 272 274
36 135 148 152 204 299 203 180 161 172 255 217 222 240 166 154 133 135 130 144 139 113 108 115 159 182 205 192 204 217 220 224 227 230 231 233 237 242 249 255 261 267 272 277
47 31 127 145 175 222 236 173 148 131 283 297 213 215 174 147 163 203 162 169 144 136 154 182 190 202 214 203 210 216 217 218 219 225 232 239 246 252 257 262 267 272 277 280
129 110 202 188 224 280 190 156 145 114 245 61 170 182 160 140 129 144 151 149 156 157 187 231 242 242 230 229 229 225 223 226 234 245 254 262 268 272 276 278 281 283 284 285
162 160 179 159 173 261 149 119 176 170 124 133 122 127 121 135 137 147 158 160 179 197 212 247 247 238 238 254 252 247 249 256 264 270 276 281 285 287 288 289 289 288 290 291
204 185 177 188 208 145 170 113 158 145 148 146 145 137 133 138 141 163 172 187 199 216 222 238 255 269 275 279 283 284 283 285 286 289 290 292 293 294 295 295 296 298 299 299
262 184 150 96 263 177 193 197 174 161 165 165 163 147 151 154 169 176 180 178 205 220 242 270 283 289 292 294 294 296 297 298 299 300 301 301 301 302 302 302 303 302 303 302
183 138 157 266 167 125 188 209 197 177 175 174 164 163 174 182 177 192 186 185 201 243 276 288 296 299 302 302 302 303 304 305 306 308 309 309 308 308 306 305 307 306 305 306
189 170 171 209 190 152 125 185 196 191 187 198 206 186 176 179 173 182 184 200 242 280 294 297 300 303 304 306 308 310 311 312 313 313 312 312 312 311 311 310 306 303 304 303